Alturas, CA

9:26 PM PST on February 23, 2017 (GMT -0800)
Alturas Municipal

Weather History for KAAT - June, 2013

Change the Weather History Date:

Sunday, June 16, 2013

  Actual Average Record
Temperature  
Mean Temperature 60 °F 59 °F  
Max Temperature 81 °F 78 °F 101 °F (1961)
Min Temperature 38 °F 41 °F 29 °F (1919)
Degree Days  
Heating Degree Days 5 6  
Month to date heating degree days 65 123  
Since 1 June heating degree days 65 123  
Since 1 July heating degree days 6414 6880  
Cooling Degree Days 0 0  
Month to date cooling degree days 19 0  
Year to date cooling degree days 19 0  
Since 1 June cooling degree days 19 0  
Growing Degree Days 10 (Base 50)    
Moisture  
Dew Point 31 °F    
Average Humidity 45    
Maximum Humidity 76    
Minimum Humidity 13    
Precipitation  
Precipitation 0.00 in 0.03 in 0.46 in (1995)
Month to date precipitation 0.00 0.72  
Year to date precipitation 4.07 8.26  
Snow  
Snow 0.00 in - - ()
Month to date snowfall 0.0  
Year to date snowfall 0.0  
Snow Depth 0.00 in    
Sea Level Pressure  
Sea Level Pressure 30.01 in    
Wind  
Wind Speed 6 mph (WSW)    
Max Wind Speed 23 mph    
Max Gust Speed 30 mph    
Visibility 10 miles    
Events      
T = Trace of Precipitation, MM = Missing Value Source: NWS Daily Summary

Daily Weather History Graph

Daily Weather History Graph

Search for Another Location

Airport or City:

Trip Planner

Search our weather history database for the weather conditions in past years. The results will help you decide how hot, cold, wet, or windy it might be!

Date:

Astronomy

Jun. 16, 2013 Rise Set
Actual Time 5:27 AM PDT 8:38 PM PDT
Civil Twilight 4:53 AM PDT 9:12 PM PDT
Nautical Twilight 4:10 AM PDT 9:55 PM PDT
Astronomical Twilight 3:18 AM PDT 10:48 PM PDT
Moon 1:14 PM PDT (6/16) 12:40 AM PDT (6/16)
Length of Visible Light 16h 18m
Length of Day
15h 10m
Waxing Crescent, 51% of the Moon is Illuminated
Jun 16
Waxing Crescent
Jun 23
Full
Jun 29
Last Quarter
Jul 8
New
Jul 15
First Quarter

Hourly Weather History & Observations

Time (PDT) Temp. Dew Point Humidity Pressure Visibility Wind Dir Wind Speed Gust Speed Precip Events Conditions
12:55 AM 50.0 °F 35.1 °F 57% 29.97 in 10.0 mi Calm Calm - N/A   Clear
1:55 AM 51.1 °F 30.9 °F 46% 29.97 in 10.0 mi Calm Calm - N/A   Clear
2:55 AM 43.0 °F 30.9 °F 62% 29.99 in 10.0 mi Calm Calm - N/A   Clear
3:55 AM 46.0 °F 33.1 °F 61% 29.99 in 10.0 mi Calm Calm - N/A   Clear
4:55 AM 39.9 °F 30.9 °F 70% 30.01 in 10.0 mi Calm Calm - N/A   Clear
5:55 AM 39.0 °F 32.0 °F 76% 30.03 in 10.0 mi Calm Calm - N/A   Clear
6:55 AM 51.1 °F 36.0 °F 56% 30.02 in 10.0 mi Calm Calm - N/A   Clear
7:55 AM 55.9 °F 37.9 °F 51% 30.03 in 10.0 mi Calm Calm - N/A   Clear
8:55 AM 64.0 °F 37.9 °F 38% 30.03 in 10.0 mi Calm Calm - N/A   Clear
9:55 AM 69.1 °F 37.9 °F 32% 30.01 in 10.0 mi Calm Calm - N/A   Clear
10:55 AM 72.0 °F 37.0 °F 28% 30.01 in 10.0 mi Variable 3.5 mph - N/A   Clear
11:55 AM 75.0 °F 34.0 °F 22% 30.01 in 10.0 mi SSW 5.8 mph - N/A   Partly Cloudy
12:55 PM 77.0 °F 28.9 °F 17% 30.01 in 10.0 mi West 11.5 mph 17.3 mph N/A   Clear
1:55 PM 80.1 °F 30.0 °F 16% 29.99 in 10.0 mi WNW 16.1 mph 21.9 mph N/A   Clear
2:55 PM 81.0 °F 24.1 °F 12% 30.00 in 10.0 mi West 12.7 mph 24.2 mph N/A   Clear
3:55 PM 79.0 °F 24.1 °F 13% 30.00 in 10.0 mi SW 12.7 mph 23.0 mph N/A   Clear
4:55 PM 80.1 °F 25.0 °F 13% 30.01 in 10.0 mi West 19.6 mph 25.3 mph N/A   Clear
5:55 PM 78.1 °F 24.1 °F 14% 30.01 in 10.0 mi West 12.7 mph 23.0 mph N/A   Clear
6:55 PM 75.0 °F 25.0 °F 16% 30.00 in 10.0 mi WSW 16.1 mph 26.5 mph N/A   Clear
7:55 PM 72.0 °F 26.1 °F 18% 30.01 in 10.0 mi West 17.3 mph 26.5 mph N/A   Clear
8:55 PM 68.0 °F 28.9 °F 23% 30.01 in 10.0 mi WSW 15.0 mph - N/A   Clear
9:55 PM 60.1 °F 30.9 °F 33% 30.04 in 10.0 mi Calm Calm - N/A   Clear
10:55 PM 62.1 °F 30.9 °F 31% 30.05 in 10.0 mi SSW 4.6 mph - N/A   Clear
11:55 PM 55.0 °F 33.1 °F 43% 30.06 in 10.0 mi Variable 3.5 mph - N/A   Clear